User: anonymous
Location: Unspecified
(0.0000°N, 0.0000°E)
Time: 05:58:31
(UTC+00:00)
Language:

RESURS DK-1 - Orbit

View from above orbital plane
View from above orbital plane
View from above satellite
View from above satellite

Ground track
Ground track

The orbit data is extracted from the following two-line orbital elements,

1 29228U 06021A   14273.88597228  .00001066  00000-0  91269-4 0  2861
2 29228 069.9348 095.8177 0002278 029.3765 330.7534 15.00832194459435
Epoch (UTC): 30 September 2014 21:15:48
Eccentricity: 0.0002278
inclination: 69.9348°
perigee height: 563 km
apogee height: 566 km
right ascension of ascending node: 95.8177°
argument of perigee: 29.3765°
revolutions per day: 15.00832194
mean anomaly at epoch: 330.7534°
orbit number at epoch: 45943

The dashed part of the orbit path shows where the satellite is in the earth's shadow,  

DLR